STARLINK-1801, 46701

Orbit data source: Space-Track

STARLINK-1801, 46701 is a payload satellite owned by SpaceX/Seattle (US) in LEO that was launched on Sun, 18 Oct 2020 UTC via an FALCON 9 launch vehicle from the Air Force Eastern Test Range (AFETR). Payloads include a variety of satellites, spacecraft, and rockets equipped with specific instruments for various scientific and technological missions. These include communications satellites like Starlink; space stations such as the ISS; scientific satellites like the Hubble; Earth observation satellites from companies like Planet Labs, Umbra, and HawkEye 360; GPS; miniature CubeSats for education and research; and military/defense satellites.

Loading next visibility...
STARLINK-1801 details
Identifier
46701, 2020-073AH
Orbit
LEO
Last TLE update1 day ago
Origin
Flag of USSpaceX/Seattle (US)
ManufacturerSpaceX/Seattle
MissionOperational Commercial Communications
Bus & MotorSTARLINK, Unknown motor
Mass260 kg wet, ~248 kg dry
Launch date (UTC)
2020-10-18 (4 years ago)
Launch vehicle
FALCON 9
Launch site
Air Force Eastern Test Range (AFETR)
Object type
Payload
Rocket body
Debris
Shape & HBRBox + 1 Pan, 8.86 m
Radar Cross Section13.562 m², Large (>1 m²)

Expand to show TLE details & history

TLE from 1 day ago
0 STARLINK-1801
1 46701U 20073AH  24360.47783717  .00029287  00000-0  19779-2 0  9992
2 46701  53.0541  53.3168 0001411  87.0007 273.1143 15.06380889230939
Epoch: 2024-12-25T11:28Z
Definitive object data (Epoch: 2024-12-25T11:28:05.131Z)
Latitude-0.00006°
Longitude146.82436°
Altitude548.096 km
Speed7.589 km/s
True Right ascension03h 33m 16s
True Declination0° 00' 00"
Sunlit
Object was in full shadow at TLE epoch
Visualization TLE readout
Latitude53.19247°
Longitude-125.98009°
Altitude552.662 km
Speed7.592 km/s
Apparent Right ascension02h 57m 05s
Apparent Declination33° 48' 35"
Sunlit
Object is in full shadow
Visualization observer readout
Local Sidereal Time11:06:41
Azimuth315.443° NNW
Elevation0.891°
Doppler factor1
Orbital elements
Apogee altitude548.518 km
Perigee altitude546.564 km
Semi-major axis6,925.678 km
Eccentricity0.0001411
Inclination53.0541°
RAAN53.3168°
Arg. of periapsis87.0007°
True anomaly273.09815°
Mean anomaly273.1143°
Eccentric anomaly273.10623°
Mean motion3.76573 °/min
BSTAR0.0019779
Orbital period95.6 mins
Loading maneuver chart data...
Loading historical data...
Loading historical data...
Loading historical data...
Loading historical data...
Loading historical data...
Loading historical data...
Loading historical data...

STARLINK-1801 Visibility forecast

Observer location: undefined°, undefined

Span
Click to sort rows by Start time (UTC) header in descending order
Start Az.
Max El. time (UTC)
Max El. Az.
Max El.
End time (UTC)
End Az.
6 mins2024-12-26 11:48:17.682Z335.266° NNW2024-12-26 11:51:17.682Z31.81° NE22.191°2024-12-26 11:54:17.682Z79.71° E
6 mins2024-12-26 13:28:17.682Z301.622° NW2024-12-26 13:31:17.682Z178.342° S41.257°2024-12-26 13:34:17.682Z141.003° SSE
4 mins2024-12-27 05:02:17.682Z157.945° S2024-12-27 05:03:17.682Z138.116° SSE20.438°2024-12-27 05:06:17.682Z83.277° E
6 mins2024-12-27 06:40:17.682Z254.262° W2024-12-27 06:43:17.682Z343.775° N37.444°2024-12-27 06:46:17.682Z39.575° NE
|